[[{"header":{"parameterUnit":"m.s-1","parameterCategory":1,"la1":30.2991,"la2":30.254,"lo1":-89.0895,"lo2":-89.0444,"dy":0.0017,"dx":0.0017,"nx":28,"ny":28,"refTime":"2024-12-05T03:00:00:Z","depth":0,"parameterNumber":2,"parameterNumberName":"U-component_of_WINDS"},"data":[0,0,0,0,0,0,0,0,0,0,0,0,0,0,0,0,0,0,0,0,0,0,0,0,0,0,0,0,0,0,0,0,0,0,0,0,0,0,0,0,0,0,0,0,0,0,0,0,0,0,0,0,0,0,0,0,0,0,-2.5204,-2.5205,0,-2.5262,-2.5263,-2.5264,-2.519,-2.5187,-2.5184,-2.5182,-2.5242,-2.5247,-2.5251,0,0,0,0,0,0,0,0,0,0,0,0,0,-2.5029,-2.5032,-2.5204,-2.5205,-2.5206,-2.5262,-2.5263,-2.5264,-2.519,-2.5187,-2.5184,-2.5181,-2.5241,-2.5246,-2.5251,0,0,0,0,0,0,0,0,0,0,0,0,0,-2.5098,-2.5034,-2.5204,-2.5176,-2.5174,-2.5262,-2.5263,-2.5264,-2.5191,-2.5187,-2.5183,-2.5179,-2.524,-2.5246,-2.5252,-2.5371,0,0,-2.5271,-2.5273,0,0,0,0,0,0,0,0,-2.5094,-2.5104,-2.5179,-2.5178,-2.5176,-2.5215,-2.5223,-2.53,-2.5192,-2.5184,-2.5182,-2.5177,-2.5237,-2.5243,-2.5263,-2.5374,-2.5377,-2.5271,-2.5275,-2.5278,-2.5279,0,0,0,0,0,0,0,-2.5089,-2.5101,-2.5227,-2.518,-2.5178,-2.516,-2.5165,-2.5238,-2.5233,-2.5185,-2.518,-2.5187,-2.5235,-2.5257,-2.5263,-2.5377,-2.5271,-2.5276,-2.528,-2.5283,-2.5588,-2.5593,0,0,0,0,0,0,-2.5088,-2.5098,-2.5225,-2.5229,-2.5124,-2.5166,-2.5172,-2.5206,-2.5232,-2.5232,-2.5191,-2.5184,-2.5248,-2.5256,-2.5265,-2.5407,-2.5278,-2.5283,-2.5287,-2.5584,-2.5589,-2.5594,0,0,0,0,0,0,-2.5084,-2.51,-2.5223,-2.5162,-2.5176,-2.5174,-2.5212,-2.521,-2.5231,-2.5236,-2.5235,-2.5214,-2.5245,-2.5257,-2.5345,-2.5408,-2.5286,-2.5292,-2.5579,-2.5586,-2.5592,-2.569,0,0,0,0,0,0,-2.508,-2.5099,-2.5145,-2.5164,-2.518,-2.5302,-2.5216,-2.5214,-2.5242,-2.5234,-2.5258,-2.5258,-2.5243,-2.5336,-2.5351,-2.5414,-2.5297,-2.5573,-2.5582,-2.559,-2.5682,-2.57,-2.5715,0,0,0,0,0,-2.5074,-2.5171,-2.5148,-2.5163,-2.5237,-2.5306,-2.5315,-2.5296,-2.5248,-2.5293,-2.5296,-2.5257,-2.5398,-2.5346,-2.5362,-2.5428,-2.5569,-2.5579,-2.5589,-2.5674,-2.5696,-2.5715,0,0,0,0,0,0,-2.516,-2.5173,-2.5147,-2.5253,-2.5279,-2.5293,-2.5351,-2.532,-2.536,-2.5351,-2.5325,-2.5331,-2.5425,-2.5435,-2.5377,-2.5544,-2.5476,-2.5489,-2.5535,-2.5556,-2.5572,-2.5568,-2.5302,0,0,0,0,0,-2.5191,-2.5247,-2.5254,-2.5347,-2.5361,-2.5354,-2.5383,-2.5366,-2.5392,-2.5403,-2.5412,-2.5439,-2.5488,-2.5522,-2.5569,-2.5682,-2.5686,-2.5735,-2.5751,-2.5765,-2.5778,-2.5838,-2.5859,-2.5627,-2.5626,-2.5626,0,0,-2.5257,-2.5271,-2.5307,-2.5365,-2.5383,-2.544,-2.5364,-2.5428,-2.5471,-2.5412,-2.5497,-2.5504,-2.5532,-2.5633,-2.5678,-2.5644,-2.5842,-2.5778,-2.5789,-2.5794,-2.585,-2.5872,-2.5892,-2.5633,-2.5632,-2.5631,0,0,-2.5406,-2.5422,-2.5501,-2.552,-2.5548,-2.5542,-2.5561,-2.5579,-2.5582,-2.5666,-2.5623,-2.5672,-2.576,-2.5781,-2.5803,-2.5958,-2.5924,-2.5974,-2.6062,-2.6121,-2.6139,-2.6155,-2.6211,-2.6231,-2.5986,-2.5986,-2.5987,0,-2.5484,-2.557,-2.5545,-2.5612,-2.5639,-2.5588,-2.5667,-2.5687,-2.5729,-2.5748,-2.5709,-2.5816,-2.5831,-2.5937,-2.5974,-2.5994,-2.6015,-2.5972,-2.6138,-2.6154,-2.6169,-2.6222,-2.6242,-2.5992,-2.5992,-2.5991,-2.599,0,-2.5664,-2.5724,-2.5784,-2.5825,-2.5858,-2.5931,-2.5918,-2.5954,-2.5933,-2.5931,-2.6016,-2.6032,-2.6081,-2.6104,-2.6085,-2.6206,-2.6184,-2.6142,-2.6073,-2.6197,-2.6247,-2.6266,-2.6001,-2.5999,-2.5997,-2.5995,0,0,-2.5872,-2.5897,-2.592,-2.5937,-2.5963,-2.6009,-2.6079,-2.6125,-2.6157,-2.6187,-2.6245,-2.6319,-2.6279,-2.6305,-2.6287,-2.6338,-2.646,-2.6289,-2.629,-2.6321,-2.6595,-2.6627,-2.6651,-2.6436,-2.644,-2.6443,-2.6592,0,-2.6021,-2.6143,-2.6122,-2.624,-2.6295,-2.6245,-2.6306,-2.6329,-2.6328,-2.6374,-2.6373,-2.6426,-2.637,-2.6385,-2.6433,-2.6435,-2.6515,-2.6423,-2.6491,-2.6493,-2.6487,-2.6676,-2.6711,-2.6852,-2.6611,-2.6615,-2.6617,0,-2.6213,-2.6249,-2.6372,-2.6388,-2.641,-2.6466,-2.6506,-2.6551,-2.6574,-2.657,-2.6598,-2.657,-2.6639,-2.6567,-2.6662,-2.6601,-2.6627,-2.6631,-2.6636,-2.6643,-2.6564,-2.6689,-2.6896,-2.6918,-2.6647,-2.6645,-2.6642,0,-2.6353,-2.6432,-2.6516,-2.6532,-2.6553,-2.6593,-2.6604,-2.6623,-2.6652,-2.6687,-2.6705,-2.6748,-2.6772,-2.6806,-2.679,-2.6739,-2.6888,-2.6815,-2.6887,-2.6887,-2.6922,-2.692,-2.7137,-2.6937,-2.6936,-2.6936,-2.6935,0,-2.6523,-2.66,-2.6579,-2.6631,-2.6716,-2.669,-2.6775,-2.6779,-2.6797,-2.6848,-2.6808,-2.6857,-2.6832,-2.688,-2.6867,-2.6948,-2.6959,-2.6957,-2.6953,-2.6962,-2.6962,-2.6979,-2.697,-2.6941,-2.694,-2.6939,-2.6938,0,-2.6694,-2.6683,-2.6771,-2.6783,-2.6788,-2.685,-2.686,-2.6908,-2.6903,-2.6969,-2.6982,-2.6975,-2.7029,-2.7015,-2.7074,-2.7065,-2.7167,-2.715,-2.7159,-2.7155,-2.7228,-2.7222,-2.7464,-2.7495,-2.7274,-2.7276,-2.7278,0,-2.6804,-2.6863,-2.688,-2.6912,-2.6925,-2.6976,-2.7005,-2.6982,-2.7013,-2.7044,-2.7088,-2.7137,-2.7176,-2.7263,-2.7263,-2.7307,-2.7291,-2.7373,-2.7298,-2.7304,-2.7293,-2.7291,-2.7296,-2.7389,-2.7392,-2.7394,-2.7395,0,-2.7001,-2.6992,-2.7035,-2.7077,-2.7112,-2.7143,-2.7171,-2.7199,-2.7177,-2.7215,-2.7268,-2.7298,-2.7357,-2.7406,-2.7446,-2.7456,-2.7423,-2.7419,-2.7438,-2.7447,-2.7451,-2.745,-2.7201,-2.7414,-2.7412,-2.741,-2.7409,-2.7409,-2.7146,-2.7195,-2.7215,-2.7264,-2.7282,-2.7308,-2.7353,-2.7354,-2.7398,-2.7444,-2.7427,-2.7488,-2.7509,-2.7559,-2.7574,-2.7621,-2.759,-2.7617,-2.7625,-2.7632,-2.7641,-2.7442,-2.7628,-2.7627,-2.7627,-2.7626,-2.7626,0,-2.7341,-2.735,-2.7396,-2.7435,-2.7474,-2.7437,-2.7465,-2.75,-2.7554,-2.7576,-2.7614,-2.7675,-2.7722,-2.7725,-2.7769,-2.7807,-2.7792,-2.7819,-2.7817,-2.782,-2.7666,-2.7646,-2.783,-2.783,-2.783,-2.783,-2.783,-2.783,-2.7447,-2.7528,-2.7521,-2.761,-2.7619,-2.7679,-2.7698,-2.7722,-2.7739,-2.7809,-2.7848,-2.7849,-2.7863,-2.7907,-2.7949,-2.7948,-2.7967,-2.8,-2.7994,-2.7851,-2.783,-2.7811,-2.7792,-2.8004,-2.8004,-2.8143,-2.8144,-2.8145]},{"header":{"parameterUnit":"m.s-1","parameterCategory":1,"la1":30.2991,"la2":30.254,"lo1":-89.0895,"lo2":-89.0444,"dy":0.0017,"dx":0.0017,"nx":28,"ny":28,"refTime":"2024-12-05T03:00:00:Z","depth":0,"parameterNumber":3,"parameterNumberName":"V-component_of_WINDS"},"data":[0,0,0,0,0,0,0,0,0,0,0,0,0,0,0,0,0,0,0,0,0,0,0,0,0,0,0,0,0,0,0,0,0,0,0,0,0,0,0,0,0,0,0,0,0,0,0,0,0,0,0,0,0,0,0,0,0,0,-7.4548,-7.4549,0,-7.4646,-7.4648,-7.4649,-7.4549,-7.4545,-7.4541,-7.4538,-7.4633,-7.4639,-7.4645,0,0,0,0,0,0,0,0,0,0,0,0,0,-7.4265,-7.4271,-7.4547,-7.4549,-7.455,-7.4646,-7.4648,-7.4649,-7.455,-7.4545,-7.454,-7.4536,-7.4631,-7.4638,-7.4645,0,0,0,0,0,0,0,0,0,0,0,0,0,-7.4378,-7.4273,-7.4547,-7.4512,-7.451,-7.4646,-7.4648,-7.4649,-7.4551,-7.4545,-7.4539,-7.4534,-7.4628,-7.4637,-7.4646,-7.482,0,0,-7.4674,-7.4678,0,0,0,0,0,0,0,0,-7.4372,-7.4389,-7.4516,-7.4515,-7.4513,-7.458,-7.4583,-7.4706,-7.4552,-7.4535,-7.4537,-7.4531,-7.4619,-7.4629,-7.466,-7.4824,-7.4828,-7.4675,-7.4681,-7.4685,-7.4687,0,0,0,0,0,0,0,-7.4364,-7.4384,-7.4586,-7.4518,-7.4516,-7.4489,-7.4499,-7.4606,-7.4608,-7.4536,-7.4529,-7.4543,-7.4617,-7.4651,-7.4661,-7.483,-7.4675,-7.4683,-7.4689,-7.4693,-7.5139,-7.5145,0,0,0,0,0,0,-7.4361,-7.4378,-7.4583,-7.4589,-7.4427,-7.4499,-7.451,-7.4564,-7.4607,-7.4608,-7.4547,-7.4538,-7.4638,-7.4651,-7.4664,-7.4869,-7.4685,-7.4693,-7.4699,-7.5133,-7.514,-7.5147,0,0,0,0,0,0,-7.4356,-7.4381,-7.4579,-7.4482,-7.4505,-7.451,-7.4572,-7.4569,-7.4603,-7.4616,-7.4615,-7.4582,-7.4634,-7.4651,-7.4782,-7.4871,-7.4698,-7.4706,-7.5125,-7.5135,-7.5144,-7.5281,0,0,0,0,0,0,-7.4348,-7.4379,-7.4447,-7.4484,-7.4511,-7.4698,-7.4577,-7.4575,-7.462,-7.4608,-7.4648,-7.4649,-7.4631,-7.4769,-7.4791,-7.4881,-7.4713,-7.5117,-7.5129,-7.5141,-7.5269,-7.5294,-7.5316,0,0,0,0,0,-7.4338,-7.4481,-7.4451,-7.4476,-7.4596,-7.4703,-7.4718,-7.4696,-7.4628,-7.4694,-7.4702,-7.4648,-7.4858,-7.4783,-7.4807,-7.4901,-7.5111,-7.5126,-7.514,-7.5258,-7.5289,-7.5316,0,0,0,0,0,0,-7.4452,-7.4485,-7.4452,-7.4612,-7.4656,-7.4686,-7.477,-7.473,-7.4792,-7.4778,-7.4746,-7.4756,-7.4894,-7.491,-7.4826,-7.507,-7.4973,-7.4993,-7.5055,-7.5084,-7.5108,-7.51,-7.4721,0,0,0,0,0,-7.4496,-7.4582,-7.4606,-7.4744,-7.4768,-7.4766,-7.4811,-7.4791,-7.4834,-7.4851,-7.4868,-7.4911,-7.4986,-7.5036,-7.5106,-7.527,-7.5277,-7.5347,-7.537,-7.539,-7.5407,-7.5493,-7.5524,-7.5194,-7.5194,-7.5193,0,0,-7.4587,-7.4616,-7.4672,-7.4767,-7.4799,-7.4887,-7.4782,-7.4879,-7.4943,-7.4865,-7.499,-7.5004,-7.5048,-7.5197,-7.5263,-7.5214,-7.55,-7.5408,-7.5423,-7.543,-7.5511,-7.5543,-7.557,-7.5203,-7.5202,-7.52,0,0,-7.4797,-7.4829,-7.4947,-7.4981,-7.5031,-7.5028,-7.5056,-7.5093,-7.51,-7.5225,-7.5168,-7.5242,-7.5373,-7.5407,-7.5441,-7.5664,-7.5616,-7.5688,-7.5811,-7.5896,-7.5922,-7.5945,-7.6023,-7.6051,-7.5705,-7.5705,-7.5705,0,-7.4904,-7.5036,-7.5012,-7.5114,-7.5157,-7.5092,-7.521,-7.5243,-7.5312,-7.5342,-7.5288,-7.545,-7.5475,-7.563,-7.5684,-7.5714,-7.5744,-7.5683,-7.592,-7.5943,-7.5964,-7.6038,-7.6068,-7.5713,-7.5712,-7.5712,-7.5711,0,-7.5163,-7.5256,-7.5345,-7.5416,-7.5468,-7.5578,-7.5568,-7.5623,-7.5598,-7.56,-7.5727,-7.5755,-7.583,-7.5864,-7.584,-7.6015,-7.5984,-7.5926,-7.5827,-7.6004,-7.6073,-7.6102,-7.5725,-7.5722,-7.572,-7.5718,0,0,-7.5449,-7.5505,-7.5538,-7.5568,-7.5618,-7.5688,-7.5793,-7.5867,-7.5915,-7.5965,-7.6051,-7.6163,-7.6109,-7.6148,-7.6126,-7.6201,-7.6374,-7.6133,-7.6133,-7.6176,-7.6567,-7.661,-7.6643,-7.6342,-7.6347,-7.6352,-7.6562,0,-7.566,-7.5846,-7.5826,-7.6002,-7.6086,-7.6025,-7.6116,-7.6155,-7.616,-7.623,-7.6234,-7.6313,-7.6237,-7.626,-7.6331,-7.6338,-7.6451,-7.6322,-7.642,-7.6424,-7.641,-7.6679,-7.6726,-7.6923,-7.6589,-7.6594,-7.6597,0,-7.5932,-7.5993,-7.6178,-7.6213,-7.6248,-7.6331,-7.6396,-7.6465,-7.6507,-7.6505,-7.6549,-7.6514,-7.6617,-7.6517,-7.6657,-7.657,-7.6608,-7.6617,-7.6624,-7.6632,-7.6521,-7.6693,-7.6986,-7.7015,-7.664,-7.6636,-7.6633,0,-7.612,-7.6248,-7.6375,-7.6403,-7.6449,-7.6508,-7.6529,-7.6566,-7.6611,-7.6668,-7.6696,-7.6764,-7.68,-7.6852,-7.6835,-7.6765,-7.6979,-7.6878,-7.6978,-7.6979,-7.7026,-7.7023,-7.7328,-7.7052,-7.7052,-7.7051,-7.705,0,-7.6358,-7.6473,-7.646,-7.6538,-7.6664,-7.664,-7.6764,-7.6777,-7.681,-7.6888,-7.6838,-7.6911,-7.6885,-7.6956,-7.6943,-7.7061,-7.7078,-7.7077,-7.7072,-7.7082,-7.7082,-7.7106,-7.7091,-7.7059,-7.7057,-7.7056,-7.7054,0,-7.6589,-7.6586,-7.672,-7.6752,-7.6763,-7.6854,-7.688,-7.6952,-7.6953,-7.7051,-7.7073,-7.7074,-7.7154,-7.7143,-7.7232,-7.7224,-7.737,-7.7348,-7.7356,-7.7351,-7.7452,-7.7442,-7.7782,-7.7825,-7.7523,-7.7526,-7.7528,0,-7.6741,-7.6828,-7.687,-7.692,-7.6946,-7.7026,-7.7072,-7.7051,-7.7101,-7.7155,-7.722,-7.7296,-7.7357,-7.7488,-7.7495,-7.7563,-7.7542,-7.7657,-7.7552,-7.7558,-7.7543,-7.7537,-7.7545,-7.7677,-7.7681,-7.7683,-7.7686,0,-7.701,-7.7004,-7.7074,-7.7144,-7.7202,-7.7255,-7.7303,-7.7345,-7.7328,-7.7386,-7.747,-7.7517,-7.7608,-7.7684,-7.7748,-7.7766,-7.7723,-7.7719,-7.7745,-7.7755,-7.7756,-7.7756,-7.7412,-7.7711,-7.7708,-7.7706,-7.7705,-7.7704,-7.7206,-7.728,-7.7321,-7.7401,-7.7435,-7.7481,-7.755,-7.756,-7.7629,-7.7704,-7.7686,-7.778,-7.7817,-7.7898,-7.7924,-7.7995,-7.7953,-7.7992,-7.8001,-7.8011,-7.8023,-7.7746,-7.8007,-7.8006,-7.8005,-7.8005,-7.8004,0,-7.7471,-7.7495,-7.7568,-7.7638,-7.77,-7.7656,-7.7706,-7.776,-7.7844,-7.7884,-7.7945,-7.8039,-7.8112,-7.8125,-7.8194,-7.8249,-7.823,-7.8268,-7.8263,-7.8268,-7.8057,-7.8027,-7.8281,-7.8281,-7.8281,-7.8281,-7.8281,-7.8281,-7.7617,-7.774,-7.7739,-7.7877,-7.7899,-7.7992,-7.8025,-7.8066,-7.8097,-7.8206,-7.8268,-7.8276,-7.8304,-7.8375,-7.844,-7.8441,-7.8468,-7.8513,-7.8507,-7.831,-7.8283,-7.8256,-7.8227,-7.852,-7.852,-7.8711,-7.8713,-7.8714]}]]